Ruidoso, NM

11:22 AM MDT on September 26, 2017 (GMT -0600)
Sierra Blanca Regional

Weather History for KSRR - August, 2013

Change the Weather History Date:

Friday, August 23, 2013

  Actual Average Record
Temperature  
Mean Temperature 67 °F -  
Max Temperature 75 °F 77 °F 87 °F (2002)
Min Temperature 59 °F 55 °F 53 °F (1996)
Cooling Degree Days 2    
Growing Degree Days 17 (Base 50)    
Moisture  
Dew Point 48 °F    
Average Humidity 58    
Maximum Humidity 88    
Minimum Humidity 41    
Precipitation  
Precipitation 0.05 in - - ()
Sea Level Pressure  
Sea Level Pressure 30.31 in    
Wind  
Wind Speed 5 mph (SSW)    
Max Wind Speed 20 mph    
Max Gust Speed 29 mph    
Visibility 10 miles    
Events Rain , Thunderstorm    
Averages and records for this station are not official NWS values.
T = Trace of Precipitation, MM = Missing Value Source: NWS Daily Summary

Daily Weather History Graph

Daily Weather History Graph

Search for Another Location

Airport or City:

Trip Planner

Search our weather history database for the weather conditions in past years. The results will help you decide how hot, cold, wet, or windy it might be!

Date:

Astronomy

Aug. 23, 2013 Rise Set
Actual Time 6:30 AM MDT 7:38 PM MDT
Civil Twilight 6:04 AM MDT 8:04 PM MDT
Nautical Twilight 5:33 AM MDT 8:34 PM MDT
Astronomical Twilight 5:02 AM MDT 9:06 PM MDT
Moon 9:12 PM MDT (8/23) 9:16 AM MDT (8/23)
Length of Visible Light 13h 59m
Length of Day
13h 08m
Waning Gibbous, 91% of the Moon is Illuminated
Aug 23
Waning Gibbous
Aug 28
Last Quarter
Sep 5
New
Sep 12
First Quarter
Sep 19
Full

Hourly Weather History & Observations

Time (MDT) Temp. Dew Point Humidity Pressure Visibility Wind Dir Wind Speed Gust Speed Precip Events Conditions
12:15 AM 59.0 °F 39.2 °F 48% 30.33 in 10.0 mi SW 8.1 mph - N/A   Clear
12:35 AM 59.0 °F 39.2 °F 48% 30.33 in 10.0 mi SW 6.9 mph - N/A   Clear
12:55 AM 59.0 °F 39.2 °F 48% 30.33 in 10.0 mi SSW 6.9 mph - N/A   Clear
1:15 AM 59.0 °F 41.0 °F 51% 30.34 in 10.0 mi SW 6.9 mph - N/A   Clear
1:35 AM 59.0 °F 41.0 °F 51% 30.33 in 10.0 mi North 3.5 mph - N/A   Clear
1:55 AM 59.0 °F 39.2 °F 48% 30.33 in 10.0 mi Calm Calm - N/A   Clear
2:15 AM 59.0 °F 37.4 °F 45% 30.33 in 10.0 mi North - - N/A   Clear
2:35 AM 59.0 °F 39.2 °F 48% 30.32 in 10.0 mi Calm Calm - N/A   Clear
2:55 AM 60.8 °F 39.2 °F 45% 30.32 in 10.0 mi ENE 3.5 mph - N/A   Clear
3:15 AM 62.6 °F 41.0 °F 45% 30.32 in 10.0 mi Calm Calm - N/A   Clear
3:35 AM 62.6 °F 44.6 °F 52% 30.31 in 10.0 mi Calm Calm - N/A   Partly Cloudy
3:55 AM 62.6 °F 44.6 °F 52% 30.31 in 10.0 mi Calm Calm - N/A   Partly Cloudy
4:15 AM 62.6 °F 44.6 °F 52% 30.31 in 10.0 mi Calm Calm - N/A   Clear
4:35 AM 62.6 °F 44.6 °F 52% 30.31 in 10.0 mi Calm Calm - N/A   Clear
4:55 AM 59.0 °F 46.4 °F 63% 30.31 in 10.0 mi SW 4.6 mph - N/A   Clear
5:15 AM 59.0 °F 44.6 °F 59% 30.30 in 10.0 mi Calm Calm - N/A   Clear
5:35 AM 62.6 °F 46.4 °F 55% 30.30 in 10.0 mi Calm Calm - N/A   Clear
5:55 AM 60.8 °F 46.4 °F 59% 30.31 in 10.0 mi Calm Calm - N/A   Clear
6:15 AM 59.0 °F 46.4 °F 63% 30.31 in 10.0 mi SW 5.8 mph - N/A   Clear
6:35 AM 59.0 °F 46.4 °F 63% 30.32 in 10.0 mi WSW 5.8 mph - N/A   Clear
6:55 AM 59.0 °F 46.4 °F 63% 30.32 in 10.0 mi WSW 3.5 mph - N/A   Clear
7:15 AM 59.0 °F 48.2 °F 67% 30.32 in 10.0 mi WNW 4.6 mph - N/A   Clear
7:35 AM 60.8 °F 50.0 °F 68% 30.33 in 10.0 mi West 4.6 mph - N/A   Clear
7:55 AM 64.4 °F 50.0 °F 59% 30.34 in 10.0 mi Calm Calm - N/A   Clear
8:15 AM 64.4 °F 50.0 °F 59% 30.34 in 10.0 mi WSW 3.5 mph - N/A   Clear
8:35 AM 66.2 °F 48.2 °F 52% 30.34 in 10.0 mi Calm Calm - N/A   Clear
8:55 AM 66.2 °F 50.0 °F 56% 30.34 in 10.0 mi NE 4.6 mph - N/A   Clear
9:15 AM 68.0 °F 50.0 °F 52% 30.34 in 10.0 mi Calm Calm - N/A   Partly Cloudy
9:35 AM 69.8 °F 50.0 °F 49% 30.34 in 10.0 mi ENE 3.5 mph - N/A   Clear
9:55 AM 69.8 °F 50.0 °F 49% 30.35 in 10.0 mi SSE 6.9 mph - N/A   Clear
10:15 AM 71.6 °F 48.2 °F 43% 30.35 in 10.0 mi SE 4.6 mph - N/A   Clear
10:35 AM 71.6 °F 48.2 °F 43% 30.34 in 10.0 mi SSE 9.2 mph - N/A   Clear
10:55 AM 71.6 °F 48.2 °F 43% 30.34 in 10.0 mi ESE 9.2 mph - N/A   Clear
11:55 AM 73.4 °F 50.0 °F 44% 30.33 in 10.0 mi East 6.9 mph 18.4 mph N/A Thunderstorm Clear
12:15 PM 73.4 °F 50.0 °F 44% 30.32 in 10.0 mi East 11.5 mph 20.7 mph N/A   Clear
12:35 PM 75.2 °F 50.0 °F 41% 30.33 in 10.0 mi ESE 11.5 mph 18.4 mph N/A Thunderstorm Partly Cloudy
12:55 PM 64.4 °F 50.0 °F 59% 30.33 in 9.0 mi West 18.4 mph 28.8 mph N/A Rain , Thunderstorm Light Rain
1:15 PM 62.6 °F 51.8 °F 68% 30.32 in 10.0 mi West 19.6 mph 23.0 mph N/A Thunderstorm Mostly Cloudy
1:35 PM 68.0 °F 50.0 °F 52% 30.32 in 10.0 mi WSW 19.6 mph 24.2 mph N/A Thunderstorm Scattered Clouds
1:55 PM 66.2 °F 50.0 °F 56% 30.33 in 10.0 mi SW 16.1 mph 21.9 mph N/A Thunderstorm Thunderstorm
2:15 PM 66.2 °F 50.0 °F 56% 30.32 in 10.0 mi WSW 18.4 mph 24.2 mph N/A Thunderstorm Mostly Cloudy
2:35 PM 62.6 °F 50.0 °F 63% 30.33 in 10.0 mi WSW 13.8 mph 20.7 mph N/A Thunderstorm Mostly Cloudy
2:55 PM 60.8 °F 50.0 °F 68% 30.33 in 4.0 mi SW 9.2 mph - 0.05 in Rain , Thunderstorm Light Rain
3:15 PM 60.8 °F 50.0 °F 68% 30.33 in 10.0 mi Calm Calm - N/A Rain Light Rain
3:35 PM 59.0 °F 55.4 °F 88% 30.31 in 10.0 mi NE 3.5 mph - N/A   Scattered Clouds
3:55 PM 59.0 °F 55.4 °F 88% 30.30 in 10.0 mi NNE 5.8 mph - N/A   Partly Cloudy
4:15 PM 60.8 °F 53.6 °F 77% 30.29 in 10.0 mi North 4.6 mph - N/A   Partly Cloudy
4:35 PM 64.4 °F 53.6 °F 68% 30.28 in 10.0 mi NNE 4.6 mph - N/A   Partly Cloudy
4:55 PM 64.4 °F 51.8 °F 64% 30.28 in 10.0 mi North 3.5 mph - N/A   Clear
5:15 PM 64.4 °F 53.6 °F 68% 30.28 in 10.0 mi North 3.5 mph - N/A   Partly Cloudy
5:35 PM 64.4 °F 53.6 °F 68% 30.28 in 10.0 mi NE 3.5 mph - N/A   Scattered Clouds
5:55 PM 64.4 °F 53.6 °F 68% 30.28 in 10.0 mi Calm Calm - N/A Thunderstorm Mostly Cloudy
6:15 PM 64.4 °F 53.6 °F 68% 30.28 in 10.0 mi Calm Calm - N/A   Mostly Cloudy
6:35 PM 64.4 °F 53.6 °F 68% 30.29 in 10.0 mi SE 8.1 mph - N/A   Partly Cloudy
6:55 PM 64.4 °F 50.0 °F 59% 30.28 in 10.0 mi SSE 10.4 mph 18.4 mph N/A   Partly Cloudy
7:15 PM 64.4 °F 48.2 °F 56% 30.28 in 10.0 mi South 11.5 mph - N/A   Partly Cloudy
7:35 PM 64.4 °F 48.2 °F 56% 30.28 in 10.0 mi South 11.5 mph - N/A   Scattered Clouds
7:55 PM 62.6 °F 46.4 °F 55% 30.26 in 10.0 mi South 9.2 mph - N/A   Partly Cloudy
8:15 PM 62.6 °F 48.2 °F 59% 30.28 in 10.0 mi NNE 5.8 mph - N/A   Clear
8:35 PM 60.8 °F 48.2 °F 63% 30.28 in 10.0 mi Calm Calm - N/A   Clear
8:55 PM 59.0 °F 50.0 °F 72% 30.29 in 10.0 mi Calm Calm - N/A   Clear
9:15 PM 59.0 °F 48.2 °F 67% 30.30 in 10.0 mi Calm Calm - N/A   Clear
9:35 PM 62.6 °F 46.4 °F 55% 30.31 in 10.0 mi Calm Calm - N/A   Clear
9:55 PM 62.6 °F 46.4 °F 55% 30.32 in 10.0 mi North - - N/A   Clear
10:15 PM 62.6 °F 48.2 °F 59% 30.32 in 10.0 mi SW 4.6 mph - N/A   Clear
10:35 PM 60.8 °F 48.2 °F 63% 30.33 in 10.0 mi SW 4.6 mph - N/A   Partly Cloudy
10:55 PM 60.8 °F 48.2 °F 63% 30.33 in 10.0 mi SSW 4.6 mph - N/A   Mostly Cloudy
11:15 PM 59.0 °F 48.2 °F 67% 30.32 in 10.0 mi Calm Calm - N/A   Overcast
11:35 PM 60.8 °F 48.2 °F 63% 30.32 in 10.0 mi SSW 3.5 mph - N/A   Scattered Clouds
11:55 PM 60.8 °F 48.2 °F 63% 30.32 in 10.0 mi Calm Calm - N/A   Clear